Regional Weather Roundup
Issued by NWS

Home | Current Version | Previous Version | Graphics & Text | Print | Product List | Glossary On
Versions: 1 2 3 4 5 6 7 8 9 10 11 12 13 14 15 16 17 18 19 20 21 22 23 24 25 26 27 28 29 30 31 32 33 34 35 36 37 38 39 40 41 42 43 44 45 46 47 48 49 50
000
ASUS45 KABQ 050401
RWRNM
NEW MEXICO REGIONAL WEATHER ROUNDUP
NATIONAL WEATHER SERVICE ALBUQUERQUE NM
1000 PM MDT WED MAY 04 2016

NOTE: "FAIR" MEANS FEW OR NO CLOUDS BELOW 12,000 FEET AGL WITH NO
       SIGNIFICANT WEATHER OR OBSTRUCTIONS TO VISION.

      THIS PRODUCT IS RELEASED AS TWO VERSIONS.  ONE VERSION NEAR
      THE TOP OF THE HOUR CONTAINING PRELIMINARY DATA FROM ALBUQUERQUE
      AND OTHER STATIONS.  A FINAL VERSION WITH ADDITIONAL DATA IS
      ISSUED ABOUT 10 MINUTES AFTER THE HOUR.

NMZ501-503-504-510>518-050500-
NORTHWEST PLATEAU/NORTHCENTRAL MOUNTAINS

CITY           SKY/WX    TMP DP  RH WIND       PRES   REMARKS
FARMINGTON     FAIR      63  23  21 E9        30.13R
SANTA FE       FAIR      58  19  22 E3        30.23R
TAOS           FAIR      48  25  40 E6        30.27R
ANGEL FIRE     FAIR      40  25  54 CALM      30.36R

$$
NMZ402-403-502-505>509-050500-
WESTCENTRAL MOUNTAINS/SOUTHWEST MOUNTAINS

CITY           SKY/WX    TMP DP  RH WIND       PRES   REMARKS
GALLUP         FAIR      57  33  40 E5        30.19R
GRANTS         FAIR      59  21  22 S10G17    30.24R
SILVER CITY      N/A     64  23  20 E9        30.19R

$$
NMZ407-409-411-412-050500-
SOUTHERN DESERTS

CITY           SKY/WX    TMP DP  RH WIND       PRES   REMARKS
LORDSBURG      FAIR      68  25  19 SE10      30.08R
DEMING         FAIR      65  22  19 E6        30.11R
HOLLOMAN AFB   FAIR      70  19  14 E8        30.11R
ALAMOGORDO     FAIR      70  18  13 CALM      30.13S
T OR C         FAIR      70  22  16 SW3       30.14R

$$
NMZ519>523-050500-
CENTRAL VALLEYS/CENTRAL HIGHLANDS

CITY           SKY/WX    TMP DP  RH WIND       PRES   REMARKS
ALBUQUERQUE    FAIR      64  23  21 E5        30.17R
DOUBLE EAGLE   CLEAR     54  27  35 CALM      30.21R
CLINES CORNERS FAIR      52  20  28 S12       30.28R
BELEN          FAIR      61  18  19 CALM      30.17R
SOCORRO        NOT AVBL

$$
NMZ524>526-539-540-050500-
SOUTHCENTRAL MOUNTAINS

CITY           SKY/WX    TMP DP  RH WIND       PRES   REMARKS
RUIDOSO        NOT AVBL

$$
NMZ527>531-050500-
NORTHEAST HIGHLANDS/NORTHEAST PLAINS

CITY           SKY/WX    TMP DP  RH WIND       PRES   REMARKS
LAS VEGAS      FAIR      48  27  44 S12       30.27R
RATON          FAIR      54  29  38 W8        30.23R
CLAYTON        FAIR      55  40  56 S7        30.18R

$$
NMZ532>537-050500-
EASTCENTRAL PLAINS

CITY           SKY/WX    TMP DP  RH WIND       PRES   REMARKS
TUCUMCARI      FAIR      58  34  40 S7        30.13R
CANNON AFB     CLEAR     59  33  37 E7        30.17R
CLOVIS AIRPORT FAIR      57  36  44 E6        30.18R

$$
NMZ028-029-538-050500-
SOUTHEAST PLAINS

CITY           SKY/WX    TMP DP  RH WIND       PRES   REMARKS
ROSWELL        FAIR      62  23  22 SW8       30.13R
ARTESIA        FAIR      63  27  25 SW10      30.14R HAZE
CARLSBAD       FAIR      63  25  23 SW9       30.11R
HOBBS          FAIR      63  27  25 SW5       30.15R


$$



USA.gov is the U.S. government's official web portal to all federal, state and local government web resources and services.